This is the latest recevied weather packets stored in our database for station/object OE-11204. If no packets are shown the sender has not sent any weather packets the latest 10 day(s).
| Time | Temp. | Humidity | Pressure | Rain* | Wind** | Luminosity | Snow |
|---|---|---|---|---|---|---|---|
| 1788122115 | 20.56° C | 69% | 1015.3 hPa | 0 mm | - | 0 W/m² | - |
| 1788121515 | 20.56° C | 66% | 1015.3 hPa | 0 mm | - | 0 W/m² | - |
| 1788120689 | 20.56° C | 69% | 1015.3 hPa | 0 mm | - | 0 W/m² | - |
| 1788120316 | 20.56° C | 66% | 1015.2 hPa | 0 mm | - | 0 W/m² | - |
| 1788119716 | 20.56° C | 70% | 1015.2 hPa | 0 mm | - | 0 W/m² | - |
| 1788118889 | 20.56° C | 69% | 1015.2 hPa | 0 mm | - | 0 W/m² | - |
| 1788118516 | 21.11° C | 65% | 1014.9 hPa | 0 mm | - | 0 W/m² | - |
| 1788117916 | 21.11° C | 67% | 1014.7 hPa | 0 mm | - | 0 W/m² | - |
| 1788117088 | 21.67° C | 64% | 1014.6 hPa | 0 mm | - | 0 W/m² | - |
| 1788116715 | 22.22° C | 61% | 1014.4 hPa | 0 mm | - | 0 W/m² | - |
| 1788116115 | 22.78° C | 58% | 1014.1 hPa | 0 mm | - | 0 W/m² | - |
| 1788115288 | 22.78° C | 54% | 1013.7 hPa | 0 mm | - | 0 W/m² | - |
| 1788114914 | 23.33° C | 51% | 1013.5 hPa | 0 mm | - | 0 W/m² | - |
| 1788114315 | 23.33° C | 54% | 1013.5 hPa | 0 mm | - | 0 W/m² | - |
| 1788113488 | 23.33° C | 57% | 1013.2 hPa | 0 mm | - | 0 W/m² | - |
| 1788113115 | 23.89° C | 52% | 1012.9 hPa | 0 mm | - | 6 W/m² | - |
| 1788112515 | 24.44° C | 48% | 1012.7 hPa | 0 mm | - | 6 W/m² | - |
| 1788111927 | 24.44° C | 48% | 1012.5 hPa | 0 mm | - | 19 W/m² | - |
| 1788111315 | 24.44° C | 51% | 1012.4 hPa | 0 mm | - | 31 W/m² | - |
| 1788110715 | 25° C | 48% | 1012.3 hPa | 0 mm | - | 50 W/m² | - |
| 1788109888 | 25° C | 49% | 1012.3 hPa | 0 mm | - | 50 W/m² | - |
| 1788109515 | 25° C | 50% | 1012.2 hPa | 0 mm | - | 56 W/m² | - |
| 1788108914 | 25.56° C | 47% | 1012 hPa | 0 mm | - | 87 W/m² | - |
| 1788108088 | 26.11° C | 45% | 1011.9 hPa | 0 mm | - | 111 W/m² | - |
| 1788107715 | 26.11° C | 44% | 1011.8 hPa | 0 mm | - | 74 W/m² | - |
* Rain latest hour (hover to see other rain measurements)
** Current wind speed in m/s (hover to see current wind gust speed)